WZZ6NC LEMG-LHBP

Flight info

Callsign WZZ6NC
Flight time N/A
Altitude 36000
Route RIXUR N851 MHN DCT MORSS DCT BAVON DCT ORKUM DCT ELSAG DCT ALG DCT MINKA DCT POZZO DCT ROMPO DCT GISPA DCT KATAR DCT IBENI/N0429F370 DCT KOPRY DCT ULZAK
Aircraft A320/M-SDE1E2E3FGIJ1J4RWXY/LB1

Departure

Time 2026-05-08 08:15
Airport Málaga-Costa del Sol Airport (LEMG)

Arrival

Time N/A
Airport Budapest Liszt Ferenc International Airport (LHBP)
Time Latitude Longitude Altitude Speed Heading
2026-05-08 07:13 36.67763 -4.49615 42 ft 0 kts 41°
2026-05-08 08:04 36.67753 -4.49625 40 ft 3 kts 28°
2026-05-08 08:04 36.67734 -4.49631 39 ft 3 kts 338°
2026-05-08 08:04 36.67719 -4.49620 39 ft 0 kts 311°
2026-05-08 08:08 36.67720 -4.49620 39 ft 0 kts 311°
2026-05-08 08:08 36.67722 -4.49631 39 ft 2 kts 281°
2026-05-08 08:09 36.67720 -4.49668 41 ft 8 kts 267°
2026-05-08 08:09 36.67722 -4.49761 39 ft 12 kts 283°
2026-05-08 08:09 36.67743 -4.49858 42 ft 9 kts 263°
2026-05-08 08:09 36.67721 -4.49932 43 ft 10 kts 284°
2026-05-08 08:10 36.67766 -4.50000 44 ft 11 kts 311°
2026-05-08 08:10 36.67822 -4.50079 44 ft 14 kts 311°
2026-05-08 08:10 36.67890 -4.50173 44 ft 16 kts 312°
2026-05-08 08:10 36.67967 -4.50281 44 ft 18 kts 311°
2026-05-08 08:11 36.68055 -4.50404 44 ft 20 kts 311°
2026-05-08 08:11 36.68154 -4.50544 44 ft 23 kts 311°
2026-05-08 08:11 36.68264 -4.50696 45 ft 25 kts 311°
2026-05-08 08:11 36.68356 -4.50827 49 ft 19 kts 311°
2026-05-08 08:12 36.68435 -4.50938 51 ft 15 kts 311°
2026-05-08 08:12 36.68486 -4.51009 53 ft 8 kts 310°
2026-05-08 08:12 36.68504 -4.51070 55 ft 7 kts 263°
2026-05-08 08:12 36.68491 -4.51123 55 ft 5 kts 253°
2026-05-08 08:13 36.68481 -4.51164 58 ft 6 kts 253°
2026-05-08 08:13 36.68466 -4.51212 57 ft 6 kts 238°
2026-05-08 08:13 36.68439 -4.51234 57 ft 3 kts 189°
2026-05-08 08:13 36.68428 -4.51222 61 ft 0 kts 133°
2026-05-08 08:14 36.68399 -4.51183 57 ft 31 kts 131°
2026-05-08 08:14 36.68090 -4.50749 53 ft 100 kts 131°
2026-05-08 08:14 36.67511 -4.49933 53 ft 149 kts 131°
2026-05-08 08:15 36.66814 -4.48955 573 ft 151 kts 130°
2026-05-08 08:15 36.66123 -4.47980 1207 ft 151 kts 131°
2026-05-08 08:15 36.65404 -4.46984 1698 ft 163 kts 132°
2026-05-08 08:15 36.64601 -4.45879 2073 ft 181 kts 131°
2026-05-08 08:16 36.63716 -4.44651 2453 ft 202 kts 131°
2026-05-08 08:16 36.62737 -4.43267 2980 ft 218 kts 131°
2026-05-08 08:16 36.61726 -4.41848 3872 ft 221 kts 132°
2026-05-08 08:16 36.60706 -4.40425 4792 ft 222 kts 133°
2026-05-08 08:17 36.59884 -4.38800 5476 ft 233 kts 112°
2026-05-08 08:17 36.59507 -4.36796 6222 ft 242 kts 104°
2026-05-08 08:17 36.59165 -4.34721 6958 ft 248 kts 105°
2026-05-08 08:17 36.58815 -4.32597 7721 ft 253 kts 104°
2026-05-08 08:18 36.58458 -4.30432 8477 ft 258 kts 105°
2026-05-08 08:18 36.58200 -4.28198 9230 ft 267 kts 94°
2026-05-08 08:18 36.58321 -4.25786 9633 ft 291 kts 88°
2026-05-08 08:18 36.58514 -4.23198 10106 ft 307 kts 87°
2026-05-08 08:19 36.58719 -4.20556 10753 ft 314 kts 87°
2026-05-08 08:19 36.58932 -4.17829 11479 ft 320 kts 88°
2026-05-08 08:19 36.59146 -4.15052 12175 ft 325 kts 88°
2026-05-08 08:19 36.59361 -4.12227 12872 ft 330 kts 88°
2026-05-08 08:20 36.59630 -4.09360 13567 ft 338 kts 82°
2026-05-08 08:20 36.60322 -4.06533 14184 ft 346 kts 68°
2026-05-08 08:20 36.61482 -4.03880 14800 ft 351 kts 59°
2026-05-08 08:20 36.62758 -4.01265 15435 ft 355 kts 58°
2026-05-08 08:21 36.64192 -3.98750 16054 ft 358 kts 47°
2026-05-08 08:21 36.65974 -3.96619 16521 ft 365 kts 35°
2026-05-08 08:21 36.68144 -3.94856 16653 ft 382 kts 26°
2026-05-08 08:21 36.70495 -3.93172 16924 ft 396 kts 26°
2026-05-08 08:22 36.72903 -3.91439 17476 ft 402 kts 26°
2026-05-08 08:22 36.75332 -3.89681 18067 ft 406 kts 26°
2026-05-08 08:22 36.77781 -3.87900 18646 ft 409 kts 26°
2026-05-08 08:22 36.80250 -3.86099 19203 ft 413 kts 26°
2026-05-08 08:23 36.82741 -3.84280 19782 ft 418 kts 26°
2026-05-08 08:23 36.85262 -3.82438 20364 ft 422 kts 26°
2026-05-08 08:23 36.87810 -3.80577 20909 ft 426 kts 26°
2026-05-08 08:23 36.90349 -3.78720 21388 ft 431 kts 26°
2026-05-08 08:24 36.92945 -3.76820 21908 ft 434 kts 26°
2026-05-08 08:24 36.95569 -3.74901 22422 ft 440 kts 26°
2026-05-08 08:24 36.98223 -3.72960 22904 ft 445 kts 25°
2026-05-08 08:24 37.00903 -3.70998 23424 ft 448 kts 25°
2026-05-08 08:25 37.03605 -3.69018 23870 ft 452 kts 25°
2026-05-08 08:25 37.06315 -3.67010 24305 ft 456 kts 28°
2026-05-08 08:25 37.08875 -3.64602 24728 ft 464 kts 39°
2026-05-08 08:25 37.11094 -3.61696 25127 ft 471 kts 49°
2026-05-08 08:26 37.12955 -3.58301 25526 ft 476 kts 60°
2026-05-08 08:26 37.14469 -3.54590 25930 ft 480 kts 63°
2026-05-08 08:26 37.15958 -3.50831 26320 ft 483 kts 63°
2026-05-08 08:26 37.17456 -3.47050 26722 ft 486 kts 63°
2026-05-08 08:27 37.18963 -3.43242 27082 ft 488 kts 64°
2026-05-08 08:27 37.20472 -3.39424 27500 ft 490 kts 63°
2026-05-08 08:27 37.21991 -3.35583 27900 ft 493 kts 64°
2026-05-08 08:27 37.23518 -3.31717 28263 ft 495 kts 64°
2026-05-08 08:28 37.25050 -3.27831 28621 ft 498 kts 64°
2026-05-08 08:28 37.26566 -3.23981 28975 ft 501 kts 64°
2026-05-08 08:28 37.28109 -3.20047 29333 ft 503 kts 64°
2026-05-08 08:28 37.29658 -3.16093 29696 ft 506 kts 64°
2026-05-08 08:29 37.31210 -3.12112 30034 ft 509 kts 64°
2026-05-08 08:29 37.32768 -3.08105 30353 ft 511 kts 64°
2026-05-08 08:29 37.34329 -3.04081 30654 ft 513 kts 65°
2026-05-08 08:29 37.35891 -3.00048 31022 ft 513 kts 65°
2026-05-08 08:30 37.37451 -2.96018 31396 ft 513 kts 65°
2026-05-08 08:30 37.38987 -2.92047 31865 ft 511 kts 65°
2026-05-08 08:30 37.42084 -2.84045 32784 ft 507 kts 65°
2026-05-08 08:31 37.43624 -2.80061 33202 ft 506 kts 65°
2026-05-08 08:31 37.45160 -2.76088 33709 ft 504 kts 66°
2026-05-08 08:31 37.46689 -2.72130 34175 ft 502 kts 66°
2026-05-08 08:31 37.48214 -2.68180 34527 ft 502 kts 66°
2026-05-08 08:32 37.49735 -2.64228 34785 ft 503 kts 66°
2026-05-08 08:32 37.51242 -2.60310 35063 ft 504 kts 66°
2026-05-08 08:32 37.52771 -2.56332 35346 ft 505 kts 66°
2026-05-08 08:32 37.54302 -2.52344 35609 ft 506 kts 66°
2026-05-08 08:33 37.55835 -2.48344 35863 ft 508 kts 66°
2026-05-08 08:33 37.57371 -2.44326 35973 ft 509 kts 66°
2026-05-08 08:33 37.60436 -2.36292 36003 ft 508 kts 66°
2026-05-08 08:34 37.63474 -2.28305 35966 ft 508 kts 66°
2026-05-08 08:34 37.66532 -2.20268 36003 ft 508 kts 66°
2026-05-08 08:35 37.69580 -2.12234 36005 ft 507 kts 67°
2026-05-08 08:35 37.72613 -2.04201 36033 ft 507 kts 67°
2026-05-08 08:36 37.75618 -1.96216 36030 ft 506 kts 67°
2026-05-08 08:36 37.78643 -1.88181 36006 ft 506 kts 67°
2026-05-08 08:37 37.81666 -1.80139 36018 ft 506 kts 67°
2026-05-08 08:37 37.84673 -1.72090 36023 ft 506 kts 67°
2026-05-08 08:38 37.87649 -1.64088 36029 ft 506 kts 67°
2026-05-08 08:38 37.90647 -1.56035 36032 ft 506 kts 67°
2026-05-08 08:39 37.93642 -1.47978 36002 ft 505 kts 68°
2026-05-08 08:39 37.96622 -1.39914 36039 ft 505 kts 68°
2026-05-08 08:40 37.99581 -1.31899 36024 ft 505 kts 68°
2026-05-08 08:40 38.02555 -1.23834 36021 ft 504 kts 68°
2026-05-08 08:41 38.05501 -1.15793 36029 ft 504 kts 68°
2026-05-08 08:41 38.08425 -1.07774 36003 ft 504 kts 68°
2026-05-08 08:42 38.11371 -0.99696 36003 ft 505 kts 68°
2026-05-08 08:42 38.14330 -0.91608 36010 ft 505 kts 68°
2026-05-08 08:43 38.17272 -0.83500 36019 ft 505 kts 68°
2026-05-08 08:43 38.20202 -0.75382 36023 ft 505 kts 68°
2026-05-08 08:44 38.23084 -0.67399 36037 ft 506 kts 68°
2026-05-08 08:44 38.26017 -0.59263 36043 ft 506 kts 68°
2026-05-08 08:45 38.28861 -0.51075 36044 ft 505 kts 71°
2026-05-08 08:45 38.31476 -0.42776 36048 ft 505 kts 72°
2026-05-08 08:46 38.34022 -0.34512 36046 ft 505 kts 72°
2026-05-08 08:46 38.36634 -0.26210 36045 ft 505 kts 71°
2026-05-08 08:47 38.39366 -0.17964 36048 ft 505 kts 70°
2026-05-08 08:47 38.42158 -0.09738 36033 ft 505 kts 70°
2026-05-08 08:48 38.44901 -0.01552 36035 ft 505 kts 70°
2026-05-08 08:48 38.47579 0.06687 36025 ft 506 kts 71°
2026-05-08 08:49 38.50220 0.15017 36033 ft 506 kts 71°
2026-05-08 08:49 38.52874 0.23350 36037 ft 507 kts 71°
2026-05-08 08:50 38.55095 0.30282 36040 ft 508 kts 71°
2026-05-08 08:50 38.58188 0.39991 36013 ft 508 kts 71°
2026-05-08 08:51 38.60842 0.48377 36017 ft 509 kts 71°
2026-05-08 08:51 38.63496 0.56779 36023 ft 510 kts 71°
2026-05-08 08:52 38.65703 0.63778 36046 ft 510 kts 71°
2026-05-08 08:52 38.68778 0.73557 36057 ft 509 kts 71°
2026-05-08 08:53 38.71416 0.81972 36018 ft 509 kts 71°
2026-05-08 08:53 38.73603 0.88957 36025 ft 509 kts 71°
2026-05-08 08:54 38.76233 0.97381 36019 ft 509 kts 71°
2026-05-08 08:54 38.78855 1.05809 36009 ft 509 kts 71°
2026-05-08 08:55 38.81468 1.14244 35995 ft 509 kts 71°
2026-05-08 08:55 38.84057 1.22628 35958 ft 509 kts 71°
2026-05-08 08:56 38.86659 1.31080 35962 ft 509 kts 71°
2026-05-08 08:56 38.89270 1.39534 35989 ft 509 kts 70°
2026-05-08 08:57 38.91858 1.47986 35997 ft 508 kts 71°
2026-05-08 08:57 38.94357 1.56388 35965 ft 507 kts 71°
2026-05-08 08:58 38.96836 1.64857 35978 ft 506 kts 71°
2026-05-08 08:58 38.99308 1.73347 35986 ft 506 kts 72°
2026-05-08 08:59 39.01008 1.79206 35994 ft 506 kts 72°
2026-05-08 08:59 39.03480 1.87684 35998 ft 506 kts 71°
2026-05-08 09:00 39.05960 1.96167 35976 ft 507 kts 71°
2026-05-08 09:00 39.07906 2.02837 35985 ft 507 kts 71°
2026-05-08 09:01 39.10367 2.11344 36013 ft 507 kts 71°
2026-05-08 09:01 39.12819 2.19850 36021 ft 506 kts 71°
2026-05-08 09:02 39.15265 2.28339 36024 ft 505 kts 71°
2026-05-08 09:02 39.17687 2.36778 35995 ft 506 kts 71°
2026-05-08 09:03 39.20121 2.45289 35993 ft 506 kts 71°
2026-05-08 09:03 39.22555 2.53808 35997 ft 507 kts 71°
2026-05-08 09:04 39.24982 2.62348 36002 ft 507 kts 72°
2026-05-08 09:04 39.27393 2.70898 35984 ft 508 kts 71°
2026-05-08 09:05 39.29798 2.79415 35986 ft 509 kts 71°
2026-05-08 09:05 39.32205 2.87959 36028 ft 510 kts 71°
2026-05-08 09:06 39.34626 2.96574 36033 ft 511 kts 71°
2026-05-08 09:06 39.37041 3.05215 36040 ft 511 kts 71°
2026-05-08 09:07 39.39431 3.13786 36019 ft 511 kts 71°
2026-05-08 09:07 39.41827 3.22399 36018 ft 511 kts 71°
2026-05-08 09:08 39.45000 3.30604 36021 ft 511 kts 58°
2026-05-08 09:08 39.48598 3.38391 36019 ft 511 kts 58°
2026-05-08 09:09 39.52247 3.46338 36024 ft 511 kts 58°
2026-05-08 09:09 39.55875 3.54265 36042 ft 511 kts 58°
2026-05-08 09:10 39.59488 3.62185 36039 ft 510 kts 58°
2026-05-08 09:10 39.63099 3.70108 36043 ft 510 kts 58°
2026-05-08 09:11 39.66703 3.78027 36040 ft 509 kts 58°
2026-05-08 09:11 39.70269 3.85891 36035 ft 509 kts 58°
2026-05-08 09:12 39.73855 3.93831 36037 ft 509 kts 58°
2026-05-08 09:12 39.77439 4.01765 36050 ft 509 kts 58°
2026-05-08 09:13 39.81017 4.09702 36052 ft 508 kts 58°
2026-05-08 09:13 39.84554 4.17594 36049 ft 508 kts 59°
2026-05-08 09:14 39.87304 4.26049 36042 ft 509 kts 75°
2026-05-08 09:14 39.89139 4.34946 36039 ft 509 kts 76°
2026-05-08 09:15 39.90959 4.43796 36042 ft 509 kts 76°
2026-05-08 09:15 39.92798 4.52708 36043 ft 510 kts 76°
2026-05-08 09:16 39.94638 4.61630 36057 ft 510 kts 75°
2026-05-08 09:16 39.96484 4.70539 36051 ft 509 kts 74°
2026-05-08 09:17 39.98487 4.79381 36045 ft 508 kts 72°
2026-05-08 09:17 40.00556 4.88133 36044 ft 508 kts 72°
2026-05-08 09:18 40.02596 4.96959 36040 ft 508 kts 73°
2026-05-08 09:18 40.04587 5.05810 36036 ft 508 kts 73°
2026-05-08 09:19 40.06583 5.14665 36042 ft 509 kts 73°